Flag for France Weather past 2 weeks in Orléans, France

Now
73 °F

Clear.


Feels Like: 75 °F
Forecast: 62 / 95 °F
Wind: 12 mph from Northwest

Location: Orleans Airport

Current Time: Jul 2, 2015 at 11:57:02 PM

Latest Report: Jul 2, 2015 at 11:30 PM


Visibility: 10 mi

Pressure: 30.18 "Hg

Humidity: 74%

Dew point: 64 °F

Location of OrléansLocation

Historic Weather in Orléans — Graph

°F

Orléans temperature yesterday

Maximum temperature yesterday: 100 °F (at 4:00 PM)
Minimum temperature yesterday: 66 °F (at 4:00 AM)
Average temperature yesterday: 84 °F

Past Weeks' High & Low Weather Summary

 TemperatureHumidityPressure
High100 °F (Jul 1, 4:00 PM)100% (Jun 19, 4:30 AM)30.24 "Hg (Jun 19, 4:30 AM)
Low43 °F (Jun 23, 5:00 AM)23% (Jun 30, 6:00 PM)29.86 "Hg (Jun 22, 4:30 PM)
Average69 °F62%30.10 "Hg
* Reported Jun 17 10:00 PM — Jul 2 10:30 PM, Orléans, Weather by CustomWeather, © 2015

Note: Actual official high and low records may vary slightly from our data, if they occured in-between our weather recording intervals... More about our weather records

Advertising

Orléans weather history for previous 24 hours

 ConditionsComfort  
Time TempWeatherWind HumidityBarometerVisibility
10:30 PM
Thu, Jul 2
77 °FSunny.13 mph61%30.15 "Hg10 mi
10:00 PM79 °FSunny.10 mph54%30.12 "Hg10 mi
9:30 PM82 °FSunny.10 mph51%30.12 "Hg10 mi
9:00 PM86 °FSunny.10 mph46%30.12 "Hg10 mi
8:30 PM88 °FSunny.10 mph40%30.09 "Hg10 mi
8:00 PM88 °FSunny.13 mph43%30.09 "Hg10 mi
7:30 PM90 °FSunny.13 mph38%30.09 "Hg10 mi
7:00 PM91 °FPassing clouds.14 mph36%30.07 "HgN/A
6:30 PM91 °FPassing clouds.13 mph38%30.07 "HgN/A
6:00 PM91 °FPassing clouds.6 mph41%30.07 "HgN/A
5:30 PM90 °FSunny.2 mph43%30.07 "Hg10 mi
5:00 PM91 °FPassing clouds.5 mph41%30.07 "HgN/A
4:30 PM91 °FSunny.2 mph41%30.07 "Hg10 mi
4:00 PM91 °FPassing clouds.6 mph44%30.07 "HgN/A
3:30 PM90 °FSunny.3 mph46%30.07 "Hg10 mi
3:00 PM86 °FSunny.3 mph52%30.04 "Hg10 mi
2:30 PM88 °FSunny.3 mph49%30.04 "Hg10 mi
2:00 PM88 °FSunny.6 mph49%30.04 "Hg10 mi
1:30 PM86 °FPassing clouds.8 mph49%30.04 "HgN/A
1:00 PM84 °FPassing clouds.10 mph55%30.04 "HgN/A
12:30 PM84 °FPassing clouds.10 mph55%30.07 "HgN/A
12:00 PM82 °FSunny.10 mph58%30.04 "Hg10 mi
11:30 AM81 °FPassing clouds.12 mph62%30.04 "HgN/A
11:00 AM79 °FSunny.12 mph65%30.04 "Hg10 mi
10:30 AM77 °FSunny.12 mph69%30.04 "Hg10 mi
10:00 AM75 °FSunny.10 mph74%30.04 "Hg10 mi
9:30 AM73 °FSunny.9 mph78%30.07 "Hg10 mi
9:00 AM68 °FMild.6 mph88%30.04 "HgN/A
8:30 AM68 °FLight rain. Cloudy.6 mph88%30.04 "HgN/A
8:00 AM68 °FMild.8 mph88%30.04 "HgN/A
7:30 AM68 °FThundershowers. Cloudy.10 mph88%30.07 "HgN/A
7:00 AM68 °FPassing clouds.6 mph88%30.01 "HgN/A
6:00 AM68 °FMild.8 mph88%30.04 "HgN/A
5:30 AM68 °FMild.13 mph88%29.98 "HgN/A
5:00 AM64 °FClear.5 mph94%30.04 "Hg6 mi
4:30 AM66 °FClear.6 mph88%30.04 "Hg10 mi
4:00 AM66 °FClear.5 mph88%30.04 "Hg10 mi
3:30 AM68 °FClear.3 mph88%30.01 "Hg10 mi
3:00 AM66 °FClear.5 mph88%30.01 "Hg10 mi
2:30 AM68 °FClear.3 mph83%30.01 "Hg10 mi
2:00 AM68 °FClear.6 mph83%29.98 "Hg10 mi
1:30 AM70 °FClear.7 mph78%29.98 "Hg10 mi
1:00 AM72 °FClear.2 mph73%29.98 "Hg10 mi
12:30 AM72 °FClear.No wind73%29.98 "Hg10 mi
12:00 AM72 °FClear.7 mph73%29.98 "Hg10 mi
11:00 PM
Wed, Jul 1
77 °FClear.7 mph61%29.98 "Hg10 mi
Weather by CustomWeather, © 2015

See weather overviewHow to use our weather pages